sat.trackr.live / text

‹ back to catalog

STARLINK-30982

NORAD 58512 · 2023-191E

PAYLOAD ACTIVE UNKNOWN

§ Identity

Operator
Country
US
Launch date
2023-12-07
Launch site
AFETR
Launch vehicle
Mass (kg)
RCS (m²)

Purposes: comms

External: N2YO · Heavens-Above · Gunter

§ Orbital elements

Epoch: 2026-09-20T21:52:06.891168Z

Period
94.27 min
Inclination
43.0004°
Eccentricity
0.0001070
Mean motion
15.27572194 rev/d
Perigee alt
482.3 km
Apogee alt
483.8 km
Semi-major
6,861.2 km
B*
-4.3964e-6
RAAN
81.2928°
Arg perigee
268.3008°
Mean anomaly
91.7722°
Rev number
15,532

§ Raw data

STARLINK-309821 58512U 23191E   26263.91119087 -.00000383  00000+0 -43964-5 0  99982 58512  43.0004  81.2928 0001070 268.3008  91.7722 15.27572194155326

JSON: /api/v1/satellites/58512 · /tle

For live sub-satellite position, see the globe view (requires WebGL).

§ Visibility from observer

Set your observer location to see the next 7 days of passes ≥ 10°. The values pass through the URL so the page stays shareable.

No JS? Fill the form by hand. The geolocation button needs JavaScript.